FW6220 Weather Reports


time (UTC)temp
F
wind
direction
speed
knots
gust
knots
rain 1hr
in
rain 24hr
in
rain mn
in
humidity
%
barometer
mb
20260906144607 71 61 1.7 5.2 0.00 0.00 0.00 84 1020.8
20260906143059 71 0 0.9 4.3 0.00 0.00 0.00 85 1020.6
20260906141618 70 58 2.6 7.0 0.00 0.00 0.00 85 1020.7
20260906140116 68 351 0.9 2.6 0.00 0.00 0.00 90 1020.6
20260906134622 66 0 0.9 3.5 0.00 0.00 0.00 98 1020.5
20260906133113 66 74 0.0 2.6 0.00 0.00 0.00 99 1020.6
20260906131557 65 0 0.0 0.0 0.00 0.00 0.00 99 1020.4
20260906130145 64 0 0.0 0.0 0.00 0.00 0.00 99 1020.3
20260906124610 62 0 0.0 0.0 0.00 0.00 0.00 98 1019.8
20260906123104 61 0 0.0 0.0 0.00 0.00 0.00 98 1019.8
20260906121608 60 0 0.0 0.0 0.00 0.00 0.00 98 1019.8
20260906120111 60 0 0.0 0.0 0.00 0.00 0.00 98 1019.6
20260906114602 60 0 0.0 0.0 0.00 0.00 0.00 98 1019.5
20260906113100 60 0 0.0 0.0 0.00 0.00 0.00 98 1019.2
20260906111558 60 0 0.0 0.0 0.00 0.00 0.00 98 1018.8
20260906110056 60 0 0.0 0.0 0.00 0.00 0.00 98 1018.8
20260906104558 61 0 0.0 0.0 0.00 0.00 0.00 98 1018.8
20260906103100 61 0 0.0 0.0 0.00 0.00 0.00 97 1018.8
20260906101604 61 0 0.0 0.0 0.00 0.00 0.00 98 1018.7
20260906094558 62 0 0.0 0.0 0.00 0.00 0.00 98 1018.5
20260906093100 62 0 0.0 0.0 0.00 0.00 0.00 98 1018.4
20260906091603 62 0 0.0 0.0 0.00 0.00 0.00 98 1018.5
20260906090104 61 0 0.0 0.0 0.00 0.00 0.00 98 1018.5
20260906084559 61 0 0.0 0.0 0.00 0.00 0.00 98 1018.4
20260906083105 61 0 0.0 0.0 0.00 0.00 0.00 98 1018.4
20260906081558 61 0 0.0 0.0 0.00 0.00 0.00 98 1018.5
20260906080058 61 0 0.0 0.0 0.00 0.00 0.00 97 1018.2
20260906074559 60 0 0.0 0.0 0.00 0.00 0.00 97 1018.4
20260906073059 60 0 0.0 0.0 0.00 0.00 0.00 97 1018.1
20260906071600 60 0 0.0 0.0 0.00 0.00 0.00 97 1018.0
20260906064559 60 0 0.0 0.0 0.00 0.00 0.00 97 1018.2
20260906063104 61 0 0.0 0.0 0.00 0.00 0.00 97 1018.3
20260906061626 61 0 0.0 0.0 0.00 0.00 0.00 97 1018.1
20260906060123 61 0 0.0 0.0 0.00 0.00 0.00 97 1017.8
20260906054606 61 0 0.0 0.0 0.00 0.00 0.00 97 1018.0
20260906053104 61 0 0.0 0.0 0.00 0.00 0.00 97 1018.0
20260906051605 62 0 0.0 0.0 0.00 0.00 0.00 97 1018.0
20260906050106 62 0 0.0 0.0 0.00 0.00 0.00 97 1017.7
20260906044606 62 0 0.0 0.0 0.00 0.00 0.00 97 1017.8
20260906043107 61 0 0.0 0.0 0.00 0.00 0.00 96 1017.8
20260906041605 61 0 0.0 0.0 0.00 0.00 0.00 96 1017.4
20260906040109 62 0 0.0 0.0 0.00 0.00 0.00 96 1017.4
20260906034607 62 0 0.0 0.0 0.00 0.00 0.00 95 1017.5
20260906033102 62 0 0.0 0.0 0.00 0.00 0.00 95 1017.6
20260906031604 63 0 0.0 0.0 0.00 0.00 0.00 95 1017.7
20260906030100 63 0 0.0 0.0 0.00 0.00 0.00 95 1017.7
20260906024608 63 0 0.0 0.0 0.00 0.00 0.00 94 1017.6
20260906023110 64 0 0.0 0.9 0.00 0.00 0.00 94 1017.4
20260906021601 64 0 0.0 0.0 0.00 0.00 0.00 93 1017.4
20260906014608 65 63 0.0 2.6 0.00 0.00 0.00 92 1017.1
20260906013103 66 0 0.0 0.9 0.00 0.00 0.00 91 1017.2
20260906011607 67 0 0.0 2.6 0.00 0.00 0.00 90 1017.0
20260906004558 68 76 0.9 2.6 0.00 0.00 0.00 91 1017.0
20260906003104 69 69 0.9 4.3 0.00 0.00 0.00 91 1017.0
20260906001603 69 71 0.9 3.5 0.00 0.00 0.00 92 1017.1
20260906000104 69 0 0.0 0.0 0.00 0.00 0.00 93 1017.1
20260905234556 70 0 0.0 3.5 0.00 0.00 0.00 92 1017.2
20260905233117 70 0 1.7 4.3 0.00 0.00 0.00 93 1017.2
20260905231601 70 0 0.0 4.3 0.00 0.00 0.00 93 1017.0
20260905230103 70 76 1.7 3.5 0.00 0.00 0.00 93 1017.1
20260905224606 70 74 0.9 6.1 0.00 0.00 0.00 93 1017.0
20260905223057 70 69 1.7 7.0 0.00 0.00 0.00 94 1016.8
20260905221602 70 52 1.7 8.7 0.00 0.00 0.00 94 1016.8
20260905220106 70 53 0.9 7.8 0.00 0.00 0.00 94 1016.6
20260905214601 70 66 2.6 7.0 0.00 0.00 0.00 94 1016.5
20260905213108 70 67 3.5 8.7 0.00 0.00 0.00 93 1016.7
20260905211609 70 66 3.5 9.6 0.00 0.00 0.00 93 1016.6
20260905210112 70 63 3.5 8.7 0.00 0.00 0.00 93 1016.7
20260905204607 70 83 2.6 8.7 0.00 0.00 0.00 93 1016.6
20260905203059 70 63 2.6 7.8 0.00 0.00 0.00 93 1016.5
20260905201604 71 61 2.6 7.8 0.00 0.00 0.00 93 1016.5
20260905194608 71 60 2.6 7.0 0.00 0.00 0.00 93 1016.5
20260905193105 71 71 2.6 6.1 0.00 0.00 0.00 93 1016.5
20260905191609 71 71 1.7 7.0 0.00 0.00 0.00 93 1016.5
20260905190104 72 50 2.6 8.7 0.00 0.00 0.00 92 1016.5
20260905184610 72 71 3.5 7.0 0.00 0.00 0.00 92 1016.7
20260905183119 72 74 2.6 7.8 0.00 0.00 0.00 93 1016.6
20260905181603 71 67 2.6 7.0 0.00 0.00 0.00 93 1016.6
20260905174600 72 60 1.7 7.8 0.00 0.00 0.00 94 1016.4
20260905173058 73 65 1.7 4.3 0.00 0.00 0.00 93 1016.4
20260905171604 74 65 2.6 7.8 0.00 0.00 0.00 90 1016.3
20260905170111 75 80 1.7 4.3 0.00 0.00 0.00 89 1016.3
20260905164602 75 72 0.0 2.6 0.00 0.00 0.00 90 1016.3
20260905163058 75 65 0.9 4.3 0.00 0.00 0.00 91 1016.2
20260905161605 74 63 1.7 7.0 0.00 0.00 0.00 91 1016.3
20260905154606 74 80 1.7 5.2 0.00 0.00 0.00 92 1016.1
20260905153119 74 76 0.0 5.2 0.00 0.00 0.00 93 1016.2
20260905151639 73 68 0.9 4.3 0.00 0.00 0.00 95 1016.0
20260905150104 72 0 0.9 7.0 0.00 0.00 0.00 96 1015.9